SOYUZ-MS 25

Last updated on Mon Sep 23 2024 00:02:07 GMT+0000 (Coordinated Universal Time)

1 59294U 24055A 24266.50833282 .00021643 00000+0 39322-3 0 9993 2 59294 51.6370 193.3347 0007383 20.0180 340.1097 15.49462232 27769
UTC large
Height (km)
Speed (km/s)
/
Latitude / Longitude
Inclination (degrees)
Orbital Period (minutes)
Azimuth
Elevation
Range (km)
Doppler Factor

Next 0 passes for location: London (51.5072 / 0.1276)

Sorry there are no passes over London.